Flag for Liberia Weather past 2 weeks in Gbarnga, Liberia

Now
79 °F

Sprinkles. Partly sunny.


Feels Like: 82 °F
Forecast: 67 / 85 °F
Wind: 5 mph from Southwest

Location: Roberts Field

Current Time: Aug 20, 2014 at 1:14:24 PM

Latest Report: Aug 20, 2014 at 12:30 PM


Visibility: 5 mi

Pressure: 29.95 "Hg

Humidity: 89%

Dew point: 75 °F

Location of GbarngaLocation

Historic Weather in Gbarnga — Graph

°F

Gbarnga temperature yesterday

Maximum temperature yesterday: 82 °F (at 11:00 AM)
Minimum temperature yesterday: 73 °F (at 4:30 AM)
Average temperature yesterday: 78 °F

Past Weeks' High & Low Weather Summary

 TemperatureHumidityPressure
High84 °F (Aug 5, 1:00 PM)100% (Aug 6, 10:00 AM)30.04 "Hg (Aug 6, 10:00 AM)
Low72 °F (Aug 18, 6:00 AM)70% (Aug 5, 12:00 PM)29.89 "Hg (Aug 6, 5:30 PM)
Average76 °F90%29.96 "Hg
* Reported Aug 5 12:00 Noon — Aug 20 12:00 Noon, Gbarnga, Weather by CustomWeather, © 2014

Note: Actual official high and low records may vary slightly from our data, if they occured in-between our weather recording intervals... More about our weather records

Advertising

Gbarnga weather history for previous 24 hours

 ConditionsComfort  
Time TempWeatherWind HumidityBarometerVisibility
12:00 PM
Aug 20
82 °FPartly sunny.No wind79%29.98 "HgN/A
11:30 AM81 °FPartly sunny.No wind84%29.98 "HgN/A
11:00 AM79 °FLight rain. Partly sunny.No wind89%29.98 "Hg5 mi
10:30 AM81 °FPartly sunny.3 mph84%29.98 "HgN/A
10:00 AM81 °FPartly sunny.5 mph84%29.98 "HgN/A
9:30 AM79 °FPartly sunny.7 mph89%29.98 "HgN/A
9:00 AM81 °FPartly sunny.3 mph84%29.98 "HgN/A
8:30 AM79 °FScattered clouds.5 mph94%29.98 "HgN/A
8:00 AM77 °FBroken clouds.No wind94%29.98 "HgN/A
7:30 AM75 °FPassing clouds.No wind94%29.95 "Hg6 mi
7:00 AM75 °FPassing clouds.No wind94%29.95 "Hg6 mi
6:30 AM75 °FPassing clouds.No wind94%29.95 "Hg5 mi
6:00 AM75 °FPassing clouds.No wind94%29.95 "HgN/A
5:30 AM75 °FPassing clouds.No wind94%29.95 "HgN/A
5:00 AM75 °FPassing clouds.No wind94%29.95 "HgN/A
4:30 AM75 °FPassing clouds.No wind94%29.95 "HgN/A
4:00 AM75 °FPassing clouds.No wind94%29.95 "HgN/A
3:00 AM75 °FPassing clouds.No wind94%29.95 "HgN/A
2:30 AM75 °FPassing clouds.No wind94%29.95 "HgN/A
2:00 AM75 °FPassing clouds.No wind94%29.95 "HgN/A
1:30 AM75 °FPassing clouds.No wind94%29.95 "HgN/A
1:00 AM75 °FPassing clouds.No wind94%29.98 "HgN/A
12:30 AM77 °FPassing clouds.No wind94%29.98 "HgN/A
12:00 AM77 °FPassing clouds.No wind94%29.98 "HgN/A
11:30 PM
Aug 19
77 °FPassing clouds.No wind89%30.01 "HgN/A
11:00 PM77 °FPassing clouds.No wind89%30.01 "HgN/A
10:30 PM77 °FPassing clouds.No wind89%30.01 "HgN/A
9:00 PM77 °FPassing clouds.No wind89%29.95 "HgN/A
6:30 PM79 °FPartly sunny.6 mph84%29.92 "HgN/A
6:00 PM79 °FPartly sunny.9 mph84%29.92 "HgN/A
5:30 PM81 °FPartly sunny.8 mph84%29.92 "HgN/A
5:00 PM81 °FPartly sunny.9 mph84%29.92 "HgN/A
4:30 PM82 °FPartly sunny.6 mph79%29.89 "HgN/A
4:00 PM82 °FPartly sunny.10 mph79%29.92 "HgN/A
3:30 PM82 °FPartly sunny.9 mph79%29.92 "HgN/A
3:00 PM82 °FPartly sunny.5 mph74%29.92 "HgN/A
2:30 PM81 °FPartly sunny.9 mph84%29.95 "HgN/A
2:00 PM81 °FPartly sunny.10 mph84%29.95 "HgN/A
1:00 PM79 °FPartly sunny.No wind89%29.98 "HgN/A
Weather by CustomWeather, © 2014

See weather overviewHow to use our weather pages